CZ-3C DEB, 40178

Orbit data source: Space-Track

CZ-3C DEB, 40178 is space debris in HEO originally from a launch on Sun, 31 Oct 2010 UTC launched from the Xichang Space Center, China (XSC). Debris objects in space refer to the collection of defunct objects orbiting the Earth. Examples of debris include non-operational satellites, rocket bodies, and fragments generated from explosions, collisions, or faulty payload assembly.

Loading next visibility...
Identifier
40178, 2010-057AG
Orbit
HEO
Country
Flag of CNCN / PRC
Related business
Manufacturer
CALT
Mission
Spacecraft
Bus & Motor
Unknown
Mass
Unknown
Launch date (UTC)
2010-10-31 (16 years ago)
Launch vehicle
Unknown
Launch site
Xichang Space Center, China (XSC)
Object type
Payload
Rocket body
Debris
Shape & HBR
Unknown shape, 0.1 m
Radar Cross Section
Medium (>0.1 m² and <1 m²)

Expand to show TLE details & history
Last TLE update: 2 months ago

TLE from 2 months ago
0 CZ-3C DEB
1 40178U 10057AG  26208.47488934  .00001133  00000-0  47210-1 0  9991
2 40178  19.1043 276.9769 7229315 236.6933  10.0273  2.09831082 33010
Epoch: 2026-07-27T11:23Z
TLE epoch observation values (Epoch: 2026-07-27T11:23:50.438Z)
Latitude
-14.9456°
Longitude
110.9454°
Altitude
3,664.435 km
Speed
7.995 km/s
True Right ascension
15h 08m 15s
True Declination
-14° 53' 06"
Sunlit
Object was in daylight at epoch
Visualization orbit readout
Latitude
Unknown
Longitude
Unknown
Altitude
Unknown
Speed
Unknown
Apparent Right ascension
Unknown
Apparent Declination
Unknown
Sunlit
N/A
Visualization observer readout
Local Sidereal Time
08:07:25
Azimuth
Unknown
Elevation
Unknown
Doppler factor
Unknown
Orbital elements
Apogee altitude
38,033.507 km
Perigee altitude
763.8 km
Semi-major axis
25,776.791 km
Eccentricity
0.72293
Inclination
19.1043°
RAAN
276.9769°
Arg. of periapsis
236.6933°
True anomaly
71.02734°
Mean anomaly
10.0273°
Eccentric anomaly
31.94064°
Mean motion
0.52444 °/min
Orbital period
686.44 mins
BSTAR
0.04721
Loading maneuver chart data...
Computing Atmospheric mass density...
Loading historical data...
Loading historical data...
Loading historical data...
Loading historical data...
Loading historical data...
Loading historical data...
Loading historical data...

Documentation

Showing up to 5 results
|